SCP
0 0 0 0 0 -0 -0 -0 0 0 0 0 0 0 0 0 0 0 0 0 0 0
0 0 0 0 -0 -0 -0 0 0 0 0 0 0 0 0 0 0 0 0 0 0 0
0 0 0 0 0 -0 -0 0 0 0 0 0 0 0 0 0 0 0 0 0 0 0
0 0 0 0 0 -0 -0 0 0 0 0 0 0 0 0 0 0 0 0 0 0 0
0 0 0 0 0 0 -0 0 0 0 0 0 0 0 0 0 0 0 0 0 0 0
0 -0 0 0 0 0 0 0 0 0 0 0 0 0 0 0 0 0 0 0 0 0
-0 0 0 0 0 0 0 -0 0 0 0 0 0 0 0 0 0 0 0 0 0 0
0 0 0 0 0 0 0 -0 -0 -0 0 0 0 0 0 0 0 0 0 0 0 0
0 0 0 0 0 0 0 0 0 -0 -0 0 0 0 0 0 0 0 0 0 0 0
0 0 0 0 0 0 0 0 0 0 0 0 0 0 0 0 0 0 0 0 0 0
0 0 0 0 0 0 0 0 0 0 0 0 0 0 0 0 0 0 0 0 0 0
0 0 0 0 0 0 0 0 0 0 0 0 0 0 0 0 0 0 0 0 0 0
-0 0 0 0 0 0 0 0 0 0 0 0 0 0 0 0 0 0 0 0 -0 -0
-0 -0 0 0 0 0 0 0 0 0 0 0 0 0 0 0 0 0 0 -0 -0 0
Wind_Speed_500mb
10 13 17 17 12 5 5 6 11 21 19 20 22 26 28 28 30 30 28 24 23 27
10 13 16 16 12 8 7 8 12 22 23 24 23 24 27 29 30 28 27 26 23 20
9 13 16 12 13 10 9 9 13 17 24 26 25 25 26 29 26 28 30 26 24 26
8 13 17 9 10 17 15 11 13 17 22 27 28 29 28 27 26 27 29 25 23 21
7 13 16 12 10 14 16 15 15 16 18 24 27 27 26 26 26 32 26 23 24 28
7 12 22 24 16 16 16 15 16 18 18 22 26 27 25 21 25 27 21 21 21 25
9 12 15 26 23 21 19 17 18 19 18 19 22 24 26 19 27 29 21 20 25 26
13 17 16 15 17 18 21 21 22 20 21 18 19 20 25 27 34 22 19 21 31 35
18 24 20 16 17 17 17 19 18 23 14 15 19 20 23 39 36 22 23 31 40 37
27 27 23 18 17 17 17 16 17 22 15 14 20 30 23 44 33 31 27 37 31 44
31 29 26 22 19 16 15 15 16 15 15 19 20 30 34 41 41 31 31 34 46 48
28 35 31 25 21 16 12 16 20 20 21 22 31 31 32 41 42 35 35 47 41 41
28 40 36 29 24 18 13 13 17 19 21 22 20 26 29 31 37 46 42 49 47 43
31 40 41 36 30 26 20 14 18 18 19 19 21 22 27 29 37 47 50 43 47 35
Wind_Direction_500mb
6 14 5 6 11 25 95 133 173 185 180 168 161 165 175 176 183 192 200 211 222 213
349 8 8 15 37 71 108 122 147 174 171 163 157 162 170 171 181 189 197 207 207 223
30 19 26 36 50 74 107 108 129 158 176 175 167 165 165 169 178 195 197 202 211 210
43 40 38 62 78 80 94 102 122 139 166 174 173 171 171 173 181 187 187 199 207 201
73 64 41 73 102 91 96 102 122 144 152 167 172 170 176 176 176 173 180 194 202 201
108 82 69 73 96 105 105 113 122 124 144 157 161 164 171 174 177 181 185 180 185 187
142 130 98 84 89 98 97 103 127 131 132 154 162 162 164 165 160 155 172 191 191 186
164 149 135 107 93 94 85 89 116 135 143 139 162 163 171 166 152 146 146 151 162 156
169 155 145 135 118 104 90 73 96 125 142 170 170 168 181 173 174 155 130 141 149 154
172 161 154 151 127 109 95 78 90 120 116 126 166 170 151 172 170 162 143 146 139 142
181 176 171 168 151 128 98 96 106 124 98 109 117 164 164 159 165 152 137 139 144 143
186 185 180 175 166 149 122 112 114 104 112 123 109 125 171 191 192 178 165 168 161 155
189 190 183 185 181 169 147 130 136 122 111 116 129 123 119 133 162 173 172 167 157 156
192 192 192 193 193 184 177 163 162 158 141 127 124 135 141 144 157 160 161 173 179 178
Wind_Speed_850mb
10 13 17 17 12 5 5 6 11 21 19 20 22 26 28 28 30 30 28 24 23 27
10 13 16 16 12 8 7 8 12 22 23 24 23 24 27 29 30 28 27 26 23 20
9 13 16 12 13 10 9 9 13 17 24 26 25 25 26 29 26 28 30 26 24 26
8 13 17 9 10 17 15 11 13 17 22 27 28 29 28 27 26 27 29 25 23 21
7 13 16 12 10 14 16 15 15 16 18 24 27 27 26 26 26 32 26 23 24 28
7 12 22 24 16 16 16 15 16 18 18 22 26 27 25 21 25 27 21 21 21 25
9 12 15 26 23 21 19 17 18 19 18 19 22 24 26 19 27 29 21 20 25 26
13 17 16 15 17 18 21 21 22 20 21 18 19 20 25 27 34 22 19 21 31 35
18 24 20 16 17 17 17 19 18 23 14 15 19 20 23 39 36 22 23 31 40 37
27 27 23 18 17 17 17 16 17 22 15 14 20 30 23 44 33 31 27 37 31 44
31 29 26 22 19 16 15 15 16 15 15 19 20 30 34 41 41 31 31 34 46 48
28 35 31 25 21 16 12 16 20 20 21 22 31 31 32 41 42 35 35 47 41 41
28 40 36 29 24 18 13 13 17 19 21 22 20 26 29 31 37 46 42 49 47 43
31 40 41 36 30 26 20 14 18 18 19 19 21 22 27 29 37 47 50 43 47 35
Wind_Direction_850mb
6 14 5 6 11 25 95 133 173 185 180 168 161 165 175 176 183 192 200 211 222 213
349 8 8 15 37 71 108 122 147 174 171 163 157 162 170 171 181 189 197 207 207 223
30 19 26 36 50 74 107 108 129 158 176 175 167 165 165 169 178 195 197 202 211 210
43 40 38 62 78 80 94 102 122 139 166 174 173 171 171 173 181 187 187 199 207 201
73 64 41 73 102 91 96 102 122 144 152 167 172 170 176 176 176 173 180 194 202 201
108 82 69 73 96 105 105 113 122 124 144 157 161 164 171 174 177 181 185 180 185 187
142 130 98 84 89 98 97 103 127 131 132 154 162 162 164 165 160 155 172 191 191 186
164 149 135 107 93 94 85 89 116 135 143 139 162 163 171 166 152 146 146 151 162 156
169 155 145 135 118 104 90 73 96 125 142 170 170 168 181 173 174 155 130 141 149 154
172 161 154 151 127 109 95 78 90 120 116 126 166 170 151 172 170 162 143 146 139 142
181 176 171 168 151 128 98 96 106 124 98 109 117 164 164 159 165 152 137 139 144 143
186 185 180 175 166 149 122 112 114 104 112 123 109 125 171 191 192 178 165 168 161 155
189 190 183 185 181 169 147 130 136 122 111 116 129 123 119 133 162 173 172 167 157 156
192 192 192 193 193 184 177 163 162 158 141 127 124 135 141 144 157 160 161 173 179 178